TimeCST,TemperatureF,Dew PointF,Humidity,Sea Level PressureIn,VisibilityMPH,Wind Direction,Wind SpeedMPH,Gust SpeedMPH,PrecipitationIn,Events,Conditions,WindDirDegrees,DateUTC
12:53 AM,44.1,35.1,71,30.49,10.0,Calm,Calm,-,N/A,,Clear,0,2013-01-18 06:53:00
1:53 AM,42.1,35.1,76,30.50,10.0,Calm,Calm,-,N/A,,Clear,0,2013-01-18 07:53:00
2:53 AM,42.1,35.1,76,30.49,10.0,NE,3.5,-,N/A,,Clear,40,2013-01-18 08:53:00
3:53 AM,41.0,35.1,79,30.50,10.0,Calm,Calm,-,N/A,,Clear,0,2013-01-18 09:53:00
4:53 AM,39.9,34.0,79,30.50,10.0,Calm,Calm,-,N/A,,Clear,0,2013-01-18 10:53:00
5:53 AM,39.0,33.1,79,30.50,10.0,Calm,Calm,-,N/A,,Clear,0,2013-01-18 11:53:00
6:53 AM,39.0,33.1,79,30.52,10.0,Calm,Calm,-,N/A,,Partly Cloudy,0,2013-01-18 12:53:00
7:53 AM,41.0,35.1,79,30.52,10.0,Calm,Calm,-,N/A,,Partly Cloudy,0,2013-01-18 13:53:00
8:53 AM,48.9,39.0,69,30.54,10.0,NE,3.5,-,N/A,,Partly Cloudy,50,2013-01-18 14:53:00
9:53 AM,53.1,37.0,55,30.55,10.0,East,8.1,-,N/A,,Partly Cloudy,80,2013-01-18 15:53:00
10:53 AM,55.9,36.0,47,30.55,10.0,East,8.1,-,N/A,,Partly Cloudy,100,2013-01-18 16:53:00
11:53 AM,57.0,39.0,51,30.51,10.0,ESE,5.8,-,N/A,,Clear,110,2013-01-18 17:53:00
12:53 PM,57.9,36.0,44,30.47,10.0,East,9.2,-,N/A,,Clear,100,2013-01-18 18:53:00
1:53 PM,59.0,37.0,44,30.44,10.0,East,4.6,-,N/A,,Clear,100,2013-01-18 19:53:00
2:53 PM,59.0,32.0,36,30.43,10.0,ESE,8.1,-,N/A,,Clear,110,2013-01-18 20:53:00
3:53 PM,59.0,33.1,38,30.42,10.0,East,6.9,-,N/A,,Clear,80,2013-01-18 21:53:00
4:53 PM,57.0,35.1,44,30.41,10.0,ESE,5.8,-,N/A,,Partly Cloudy,120,2013-01-18 22:53:00
5:53 PM,54.0,34.0,47,30.40,10.0,ESE,6.9,-,N/A,,Partly Cloudy,120,2013-01-18 23:53:00
6:53 PM,50.0,36.0,59,30.42,10.0,SSE,5.8,-,N/A,,Clear,150,2013-01-19 00:53:00
7:53 PM,48.0,37.0,66,30.42,10.0,Calm,Calm,-,N/A,,Clear,0,2013-01-19 01:53:00
8:53 PM,46.0,36.0,68,30.42,10.0,Calm,Calm,-,N/A,,Mostly Cloudy,0,2013-01-19 02:53:00
9:53 PM,44.1,36.0,73,30.42,10.0,Calm,Calm,-,N/A,,Scattered Clouds,0,2013-01-19 03:53:00
10:53 PM,41.0,34.0,76,30.41,10.0,Calm,Calm,-,N/A,,Scattered Clouds,0,2013-01-19 04:53:00
11:53 PM,41.0,35.1,79,30.40,10.0,Calm,Calm,-,N/A,,Scattered Clouds,0,2013-01-19 05:53:00